FW0663 Weather Reports


Display with metric or nautical units.
time (UTC)temp
F
wind
direction
speed
MPH
gust
MPH
rain 1hr
in
rain 24hr
in
rain mn
in
humidity
%
barometer
mb
20260902133049 47 103 0.0 2.0 0.00 0.00 0.00 85 1010.7
20260902131531 47 132 0.0 1.0 0.00 0.00 0.00 85 1010.7
20260902130030 46 149 0.0 0.0 0.00 0.00 0.00 87 1010.7
20260902124530 46 159 0.0 0.0 0.00 0.00 0.00 87 1010.8
20260902123029 45 159 0.0 1.0 0.00 0.00 0.00 87 1010.8
20260902121528 44 96 0.0 2.0 0.00 0.00 0.00 88 1010.7
20260902120026 44 111 1.0 3.0 0.00 0.00 0.00 87 1010.7
20260902114523 44 115 1.0 2.0 0.00 0.00 0.00 85 1010.9
20260902113021 45 103 0.0 3.0 0.00 0.00 0.00 85 1011.0
20260902111519 45 70 1.0 4.0 0.00 0.00 0.00 84 1011.1
20260902110018 47 98 0.0 0.0 0.00 0.00 0.00 83 1011.1
20260902104516 47 98 0.0 0.0 0.00 0.00 0.00 82 1011.3
20260902103013 48 98 0.0 2.0 0.00 0.00 0.00 80 1011.2
20260902101508 50 104 1.0 3.0 0.00 0.00 0.00 75 1011.0
20260902100004 53 81 0.0 0.0 0.00 0.00 0.00 73 1010.9
20260902094502 53 238 0.0 2.0 0.00 0.00 0.00 73 1011.0
20260902093101 53 255 0.0 3.0 0.00 0.00 0.00 72 1011.1
20260902091609 54 241 0.0 3.0 0.00 0.00 0.00 71 1011.0
20260902090105 54 236 0.0 5.0 0.00 0.00 0.00 71 1011.2
20260902084605 54 287 0.0 3.0 0.00 0.00 0.00 70 1011.1
20260902083113 54 322 1.0 4.0 0.00 0.00 0.00 69 1011.0
20260902081554 55 291 0.0 3.0 0.00 0.00 0.00 69 1010.9
20260902080056 55 275 0.0 2.0 0.00 0.00 0.00 69 1010.9
20260902074553 55 248 0.0 2.0 0.00 0.00 0.00 69 1010.9
20260902073056 55 247 0.0 2.0 0.00 0.00 0.00 68 1010.9
20260902071551 55 304 0.0 2.0 0.00 0.00 0.00 67 1010.8
20260902070049 56 298 0.0 2.0 0.00 0.00 0.00 65 1011.0
20260902064549 57 288 0.0 2.0 0.00 0.00 0.00 65 1011.0
20260902063048 57 282 0.0 2.0 0.00 0.00 0.00 63 1011.1
20260902061554 57 245 0.0 2.0 0.00 0.00 0.00 62 1011.1
20260902060052 58 277 0.0 0.0 0.00 0.00 0.00 61 1011.1
20260902054545 58 288 0.0 2.0 0.00 0.00 0.00 60 1011.2
20260902053050 58 273 1.0 6.0 0.00 0.00 0.00 59 1011.1
20260902051544 58 327 1.0 4.0 0.00 0.00 0.00 60 1011.0
20260902050044 59 329 1.0 5.0 0.00 0.00 0.00 59 1010.8
20260902044546 59 273 3.0 6.0 0.00 0.00 0.00 60 1010.6
20260902043047 59 273 0.0 2.0 0.00 0.00 0.00 58 1010.5
20260902041538 60 259 1.0 5.0 0.00 0.00 0.00 57 1010.3
20260902040037 61 293 4.0 8.0 0.00 0.00 0.00 55 1009.9
20260902034536 62 265 1.0 6.0 0.00 0.00 0.00 53 1009.6
20260902033042 62 273 1.0 5.0 0.00 0.00 0.00 52 1009.2
20260902031540 63 246 1.0 4.0 0.00 0.00 0.00 52 1008.8
20260902030034 63 252 1.0 6.0 0.00 0.00 0.00 51 1008.5
20260902024535 64 320 2.0 4.0 0.00 0.00 0.00 50 1008.4
20260902023037 65 288 0.0 7.0 0.00 0.00 0.00 50 1008.2
20260902021534 66 271 4.0 9.0 0.00 0.00 0.00 48 1008.0
20260902020034 67 257 1.0 9.0 0.00 0.00 0.00 47 1007.9
20260902014534 67 344 2.0 13.0 0.00 0.00 0.00 45 1007.8
20260902013033 68 324 5.0 14.0 0.00 0.00 0.00 43 1007.6
20260902011542 69 321 4.0 13.0 0.00 0.00 0.00 41 1007.3
20260902010031 70 292 6.0 13.0 0.00 0.00 0.00 38 1007.0
20260902004534 72 331 5.0 12.0 0.00 0.00 0.00 36 1006.8
20260902003031 72 257 3.0 12.0 0.00 0.00 0.00 34 1006.6
20260902001531 73 301 4.0 14.0 0.00 0.00 0.00 34 1006.5
20260902000037 74 339 3.0 10.0 0.00 0.00 0.00 33 1006.3
20260901234530 75 267 4.0 10.0 0.00 0.00 0.00 31 1006.0
20260901233029 76 273 4.0 17.0 0.00 0.00 0.00 30 1006.0
20260901231536 78 292 6.0 10.0 0.00 0.00 0.00 28 1005.8
20260901230028 78 328 2.0 7.0 0.00 0.00 0.00 28 1005.6
20260901224528 78 252 2.0 7.0 0.00 0.00 0.00 27 1005.6
20260901223027 79 346 1.0 12.0 0.00 0.00 0.00 25 1005.8
20260901221557 81 312 4.0 9.0 0.00 0.00 0.00 25 1005.9
20260901220037 80 215 3.0 7.0 0.00 0.00 0.00 27 1006.0
20260901214521 80 338 4.0 9.0 0.00 0.00 0.00 25 1006.2
20260901213023 80 5 2.0 7.0 0.00 0.00 0.00 24 1006.3
20260901211516 79 200 1.0 8.0 0.00 0.00 0.00 26 1006.5
20260901210014 78 272 1.0 10.0 0.00 0.00 0.00 28 1006.7
20260901204516 78 317 0.0 9.0 0.00 0.00 0.00 27 1006.9
20260901203009 77 121 2.0 19.0 0.00 0.00 0.00 28 1007.2
20260901201507 77 338 4.0 7.0 0.00 0.00 0.00 28 1007.5
20260901200021 77 17 3.0 8.0 0.00 0.00 0.00 28 1007.7
20260901194501 76 259 1.0 7.0 0.00 0.00 0.00 31 1007.9
20260901193058 75 331 3.0 9.0 0.00 0.00 0.00 30 1008.2
20260901191635 74 360 3.0 7.0 0.00 0.00 0.00 32 1008.4
20260901190100 73 257 0.0 3.0 0.00 0.00 0.00 34 1008.5
20260901184552 72 30 1.0 5.0 0.00 0.00 0.00 33 1008.6
20260901183053 72 279 0.0 5.0 0.00 0.00 0.00 35 1008.8
20260901181556 71 276 2.0 5.0 0.00 0.00 0.00 34 1008.9
20260901180043 70 100 1.0 3.0 0.00 0.00 0.00 41 1009.1
20260901174541 68 97 0.0 5.0 0.00 0.00 0.00 39 1009.1
20260901173036 67 99 1.0 3.0 0.00 0.00 0.00 42 1009.1
20260901171536 65 133 1.0 2.0 0.00 0.00 0.00 42 1009.3
20260901170028 63 24 0.0 4.0 0.00 0.00 0.00 43 1009.3
20260901164523 60 16 1.0 7.0 0.00 0.00 0.00 47 1009.3
20260901163020 59 82 1.0 5.0 0.00 0.00 0.00 49 1009.4
20260901161526 57 105 2.0 6.0 0.00 0.00 0.00 54 1009.7
20260901160017 56 84 2.0 5.0 0.00 0.00 0.00 59 1009.8
20260901154517 53 103 1.0 3.0 0.00 0.00 0.00 61 1010.1
20260901153022 50 144 0.0 0.0 0.00 0.00 0.00 62 1010.1
20260901151531 49 144 0.0 0.0 0.00 0.00 0.00 66 1010.0
20260901150021 49 147 0.0 0.0 0.00 0.00 0.00 63 1009.9
20260901144512 48 105 0.0 0.0 0.00 0.00 0.00 67 1009.8
20260901143011 48 116 0.0 1.0 0.00 0.00 0.00 68 1009.6
20260901141509 48 113 0.0 0.0 0.00 0.00 0.00 64 1009.4
20260901140008 48 127 0.0 2.0 0.00 0.00 0.00 64 1009.1
20260901134507 47 103 0.0 2.0 0.00 0.00 0.00 66 1009.1